Wind_Speed
25 25 24 21 21 20 20 21 21 20 20 21 21 22 22 23 24 24 24 23 23 23 23 23 24 25 26 25 24 23 21 21 20 20 21 22 23 23 24 24 24 24 24 23
23 22 22 19 18 19 19 19 20 20 20 21 21 22 22 23 24 24 24 24 24 24 23 24 25 25 25 23 22 21 21 21 22 22 23 23 23 23 24 24 24 24 24 24
19 18 17 17 16 16 17 17 18 17 17 18 19 20 21 21 22 23 23 24 23 23 23 23 22 21 20 20 20 21 22 23 24 24 24 24 24 24 24 24 24 24 25 25
14 13 11 12 13 13 14 14 13 13 14 15 15 16 17 17 18 19 19 20 19 18 18 17 17 18 19 20 21 22 23 24 25 25 24 24 24 24 23 23 24 24 25 25
11 12 12 12 12 12 11 12 12 12 13 13 13 13 13 13 13 13 14 14 13 13 14 16 17 19 20 21 22 23 23 24 24 24 23 23 23 24 24 24 24 25 25 25
9 11 12 13 13 13 11 12 12 12 11 11 10 8 8 8 8 8 9 9 10 12 14 16 18 19 20 20 21 21 22 22 22 23 23 23 23 24 24 25 25 25 26 26
11 12 12 13 14 14 14 14 12 12 11 9 7 6 5 5 5 5 6 7 9 11 14 15 16 17 18 18 19 19 20 20 21 21 22 22 22 23 24 25 26 26 27 28
11 13 14 15 15 16 16 16 14 13 11 8 6 5 4 4 4 5 6 8 9 11 12 13 14 15 15 16 17 18 18 18 19 19 20 21 21 22 23 24 25 27 28 29
14 14 14 15 16 16 16 18 16 14 10 7 5 4 4 4 4 6 7 9 10 11 11 12 13 14 15 16 16 16 16 16 17 18 18 19 20 21 21 22 24 25 27 29
16 18 16 15 17 17 18 20 17 13 9 7 6 5 4 3 5 7 9 10 10 11 11 11 13 14 15 15 15 15 15 15 15 16 16 17 17 18 19 20 21 22 24 26
16 19 19 16 16 17 19 20 17 13 10 8 6 5 3 3 5 8 10 10 11 11 10 11 13 13 13 13 13 13 13 13 13 13 14 15 15 15 16 16 16 17 18 20
15 18 20 18 15 18 20 19 16 12 10 9 7 4 3 4 6 9 10 11 11 11 11 12 12 12 12 12 12 11 11 11 12 12 13 13 14 13 12 10 9 8 10 12
13 16 18 18 16 16 19 18 16 13 10 9 6 4 3 5 6 8 10 11 11 11 11 12 12 11 11 11 11 10 10 11 11 11 12 13 13 12 11 9 6 3 2 4
11 15 17 17 17 16 18 18 16 14 11 8 6 5 4 4 6 8 9 11 11 11 11 11 11 10 10 11 11 10 10 10 11 10 11 12 12 11 10 9 7 4 3 3
10 15 18 18 18 18 18 18 17 15 13 10 7 5 4 4 6 7 9 10 11 11 11 11 11 10 10 10 11 11 11 11 10 10 10 11 11 11 10 9 7 6 4 4
10 14 18 19 18 18 18 17 18 17 15 12 9 6 5 5 5 7 8 10 11 11 11 11 10 10 10 11 11 11 11 11 10 10 10 10 10 10 9 8 7 6 5 4
12 14 18 20 21 19 19 19 20 20 17 14 10 8 6 5 5 6 7 9 10 10 10 10 10 10 10 11 11 11 11 11 10 10 10 9 9 9 8 8 7 6 5 5
14 16 19 21 22 21 21 21 21 21 19 15 12 10 8 6 4 5 6 8 9 9 9 9 9 10 10 11 11 11 11 11 11 10 10 10 10 9 9 8 8 7 6 5
16 17 20 22 24 24 24 23 23 23 21 17 15 13 10 7 5 4 4 6 8 8 8 8 8 9 10 11 11 11 11 11 11 12 12 12 12 11 11 10 10 9 8 7
18 18 21 24 26 27 27 26 26 25 23 20 17 15 12 9 6 4 3 4 6 6 6 7 7 8 10 11 11 11 11 12 13 13 13 13 13 13 13 12 12 11 11 10
22 19 21 25 27 28 29 28 27 27 25 22 19 17 13 10 8 5 2 2 4 5 5 5 6 7 9 10 10 10 11 12 13 14 14 15 15 15 15 15 15 15 14 14
25 20 21 25 28 30 30 29 28 28 26 24 21 18 15 13 10 7 4 1 2 3 3 4 5 6 7 8 9 9 10 11 12 13 14 15 15 16 16 17 17 17 17 17
28 22 20 25 29 32 31 31 31 30 28 25 22 19 17 15 13 10 6 3 1 1 2 2 3 4 5 7 7 8 9 10 11 13 14 15 16 17 17 17 18 18 17 17
29 22 19 25 30 32 33 33 33 32 30 27 23 21 19 17 15 12 8 5 2 1 1 1 1 2 4 5 6 7 8 10 11 12 13 14 15 16 17 17 17 17 17 17
28 22 19 24 29 33 34 34 35 35 33 29 25 23 21 20 17 14 11 7 4 3 3 3 2 3 4 4 5 7 8 9 11 11 12 13 14 15 16 16 16 16 16 16
28 22 19 22 28 33 35 35 37 37 35 31 28 25 24 22 20 17 13 10 7 5 5 5 5 5 5 6 6 7 8 9 9 10 11 12 13 14 14 15 15 15 15 15
27 22 19 22 28 33 36 37 38 38 37 33 30 27 26 25 23 20 16 12 9 8 7 7 7 7 7 7 7 7 7 7 8 8 9 10 10 11 12 12 12 13 13 13
Wind_Direction
255 254 253 250 248 249 248 254 260 266 271 272 273 272 269 265 264 266 268 269 271 273 273 275 279 282 284 286 286 285 281 279 279 278 277 275 273 271 269 267 264 262 261 258
253 254 254 248 248 251 254 257 263 270 274 275 271 269 267 265 264 265 266 267 267 270 273 276 279 281 281 281 281 279 277 279 281 283 282 280 277 273 270 266 263 260 258 256
246 245 250 244 247 253 255 260 267 271 273 272 271 272 273 270 266 263 261 262 265 269 273 276 278 278 278 279 279 277 278 281 283 285 284 282 279 276 271 266 262 259 257 256
238 234 241 237 241 248 253 260 265 270 274 276 277 277 276 271 265 259 257 260 264 268 271 274 275 279 280 280 280 281 282 283 284 284 283 281 279 276 272 267 263 259 256 254
226 224 230 230 227 234 245 256 262 269 274 276 280 282 275 267 260 255 254 258 263 267 270 275 279 282 283 284 284 285 285 285 285 284 283 281 278 275 273 269 264 260 256 253
216 209 214 220 218 224 234 246 254 255 256 258 261 256 257 251 247 247 251 256 262 269 275 279 282 284 285 287 287 288 288 288 287 286 285 282 279 276 273 270 265 261 257 254
206 204 214 213 212 214 219 226 229 235 239 235 232 236 241 245 248 252 259 266 273 278 282 285 286 287 289 291 292 292 292 293 292 291 289 286 282 278 274 270 266 262 258 255
208 211 218 212 209 215 219 218 218 224 224 223 219 223 230 239 254 268 278 284 287 290 291 292 293 295 297 298 299 299 298 298 297 296 294 292 288 283 278 273 268 264 259 256
220 218 215 210 211 217 219 217 219 219 222 222 218 226 237 255 275 289 296 299 301 301 300 301 302 304 306 307 307 306 305 304 303 302 301 298 294 290 284 277 271 265 260 255
230 229 224 219 215 216 213 212 215 217 219 218 220 227 242 273 295 304 308 309 310 311 311 312 314 314 315 315 315 314 312 310 309 310 309 306 303 298 291 284 276 268 261 254
235 234 234 230 222 216 210 212 214 213 214 217 222 223 242 285 305 312 314 315 316 317 320 322 323 322 322 321 321 320 319 319 321 324 326 324 319 314 306 297 284 271 259 250
239 235 236 238 230 219 210 208 208 209 212 215 217 221 252 292 311 319 321 322 323 324 326 329 329 329 330 329 328 328 329 331 334 337 340 341 340 337 332 322 304 279 255 244
243 237 237 237 230 220 211 214 213 211 213 215 217 228 261 295 315 324 327 330 331 332 332 333 335 336 337 338 337 337 339 340 343 346 350 353 354 356 357 358 355 337 250 218
247 238 237 234 232 225 218 218 213 212 213 215 220 232 263 295 317 328 333 336 338 338 339 340 341 342 344 346 348 347 346 347 349 351 353 357 1 5 10 17 27 43 77 135
253 237 235 239 239 229 223 220 214 212 214 219 225 238 261 289 317 332 338 342 344 345 346 347 349 350 351 352 353 354 353 353 352 352 355 359 4 10 16 24 33 47 69 103
263 241 235 237 237 236 234 228 220 216 219 223 227 235 255 285 316 332 340 347 350 351 352 354 356 357 356 356 358 358 356 356 356 357 360 4 9 14 20 27 36 48 64 84
268 247 238 236 234 236 234 230 223 219 221 222 226 234 250 274 305 327 340 348 352 353 355 356 358 1 3 3 3 3 2 1 2 3 6 10 15 20 26 34 43 53 64 74
272 250 239 232 229 231 228 225 220 217 218 221 226 229 241 258 286 316 338 349 353 356 358 360 2 7 9 9 10 12 13 15 18 22 25 29 33 36 41 46 53 60 66 72
288 257 240 230 226 225 223 222 220 217 218 222 225 227 232 240 256 290 329 349 357 2 5 6 9 12 14 15 18 20 25 30 35 40 44 47 48 51 55 58 61 65 68 72
301 267 244 231 225 222 220 221 220 218 219 221 221 223 225 225 231 250 307 349 4 10 12 12 13 17 21 24 28 33 40 45 50 53 56 57 58 60 62 65 66 68 70 73
309 279 248 233 225 220 218 220 220 218 217 217 217 219 219 216 216 223 254 336 6 17 18 17 20 26 30 36 41 47 52 57 60 61 63 64 65 67 69 71 72 73 74 75
314 291 254 233 223 218 216 216 216 214 213 212 213 216 214 210 209 212 223 268 357 17 23 26 31 36 40 46 52 58 64 67 67 67 67 68 70 72 73 74 75 75 75 75
316 298 258 233 222 217 214 212 211 210 209 209 211 211 210 207 206 207 209 217 254 8 34 43 48 51 55 58 63 70 74 74 73 71 71 72 73 74 75 75 74 74 73 73
317 301 263 233 221 215 212 210 209 208 207 208 209 209 207 205 203 202 201 200 203 199 153 116 102 89 82 80 81 83 82 80 78 76 76 76 75 75 74 73 73 72 71 70
315 301 266 235 221 214 211 208 207 206 206 206 207 207 205 204 203 200 198 198 197 194 188 180 165 140 123 113 106 100 94 89 84 80 79 78 76 74 72 71 69 68 66 65
312 300 269 238 222 214 210 208 206 204 205 205 207 206 205 203 201 200 199 199 199 196 191 188 181 167 153 142 130 118 108 99 91 86 82 79 74 71 68 65 63 61 59 56
307 298 271 239 223 214 210 207 205 204 205 206 206 206 204 203 201 200 200 200 201 201 197 192 187 178 169 160 150 138 124 111 100 91 83 76 70 66 62 59 57 54 51 48
Height
5750 5751 5753 5755 5757 5760 5763 5765 5767 5769 5770 5771 5771 5772 5773 5773 5774 5774 5775 5776 5777 5777 5776 5776 5776 5775 5774 5773 5772 5770 5769 5768 5767 5766 5766 5765 5764 5764 5763 5763 5763 5763 5763 5764
5743 5745 5747 5749 5752 5755 5758 5759 5761 5763 5765 5765 5765 5765 5765 5766 5766 5767 5768 5769 5770 5770 5770 5770 5769 5768 5768 5767 5766 5765 5764 5763 5762 5761 5759 5758 5757 5757 5756 5756 5756 5756 5756 5757
5737 5739 5742 5745 5748 5751 5753 5755 5757 5758 5760 5759 5759 5758 5759 5759 5760 5761 5762 5763 5763 5764 5764 5764 5763 5762 5762 5761 5760 5759 5758 5757 5755 5754 5752 5751 5750 5749 5749 5748 5749 5749 5749 5750
5732 5736 5740 5744 5744 5746 5748 5750 5752 5753 5753 5754 5754 5754 5754 5754 5754 5755 5756 5757 5758 5758 5758 5758 5758 5757 5756 5755 5754 5753 5752 5750 5748 5747 5745 5744 5743 5742 5741 5741 5741 5741 5742 5742
5729 5733 5737 5739 5740 5742 5745 5747 5748 5749 5750 5750 5750 5750 5750 5750 5750 5751 5752 5753 5754 5754 5754 5754 5753 5752 5751 5750 5748 5747 5745 5743 5741 5740 5738 5737 5736 5734 5734 5734 5733 5734 5734 5735
5727 5730 5733 5736 5737 5739 5743 5744 5745 5746 5747 5747 5747 5748 5748 5748 5749 5749 5750 5751 5751 5751 5751 5750 5749 5747 5746 5744 5742 5740 5738 5736 5735 5733 5731 5730 5728 5727 5726 5726 5725 5726 5726 5727
5724 5727 5729 5732 5734 5738 5741 5742 5742 5743 5744 5745 5745 5747 5748 5748 5749 5749 5750 5750 5749 5749 5748 5746 5744 5743 5741 5739 5737 5735 5732 5730 5728 5726 5724 5722 5720 5719 5718 5717 5717 5717 5718 5718
5722 5725 5729 5729 5731 5735 5736 5738 5739 5741 5743 5744 5745 5746 5747 5748 5749 5749 5749 5748 5747 5746 5744 5742 5740 5738 5736 5734 5732 5729 5727 5724 5722 5720 5717 5715 5713 5711 5710 5709 5708 5708 5709 5709
5720 5723 5723 5725 5728 5731 5733 5735 5737 5740 5741 5743 5745 5746 5747 5748 5748 5748 5747 5746 5745 5743 5741 5739 5737 5734 5732 5729 5727 5724 5722 5719 5717 5714 5711 5709 5706 5704 5702 5700 5700 5699 5699 5700
5717 5719 5720 5723 5726 5728 5731 5733 5736 5739 5741 5743 5744 5745 5746 5747 5747 5746 5745 5744 5742 5740 5738 5736 5733 5731 5728 5725 5722 5720 5717 5715 5712 5710 5706 5703 5700 5697 5694 5692 5691 5690 5689 5690
5715 5717 5719 5721 5724 5726 5729 5731 5734 5737 5740 5742 5743 5744 5745 5745 5745 5745 5743 5742 5740 5738 5735 5733 5730 5727 5725 5722 5719 5717 5714 5711 5708 5705 5702 5698 5695 5691 5688 5685 5682 5681 5681 5681
5714 5715 5717 5720 5722 5725 5727 5730 5733 5736 5739 5741 5742 5743 5744 5744 5744 5743 5742 5740 5738 5736 5733 5730 5728 5725 5722 5719 5717 5714 5711 5708 5706 5702 5699 5695 5691 5688 5684 5680 5678 5676 5676 5677
5712 5714 5716 5719 5721 5723 5726 5729 5732 5735 5738 5740 5741 5742 5742 5743 5742 5741 5739 5738 5736 5733 5731 5728 5725 5723 5720 5717 5714 5711 5709 5706 5703 5700 5697 5694 5690 5686 5683 5680 5677 5675 5675 5675
5711 5713 5715 5717 5720 5722 5725 5728 5731 5734 5736 5738 5740 5740 5741 5741 5740 5739 5738 5736 5734 5731 5729 5726 5723 5721 5718 5715 5713 5710 5707 5704 5702 5699 5696 5693 5690 5686 5683 5680 5678 5677 5676 5677
5710 5711 5713 5715 5718 5720 5723 5726 5729 5732 5735 5737 5738 5739 5739 5739 5739 5737 5736 5734 5732 5730 5727 5724 5722 5719 5717 5714 5711 5708 5706 5703 5700 5698 5695 5693 5690 5687 5684 5682 5680 5679 5678 5679
5708 5709 5710 5713 5716 5718 5721 5724 5727 5730 5733 5735 5736 5737 5738 5738 5737 5736 5734 5733 5731 5728 5726 5723 5721 5718 5716 5713 5710 5708 5705 5702 5700 5697 5695 5693 5690 5688 5686 5684 5682 5681 5681 5681
5706 5706 5707 5709 5712 5715 5718 5721 5724 5727 5730 5732 5734 5735 5736 5736 5736 5735 5733 5732 5729 5727 5725 5723 5721 5718 5716 5713 5710 5707 5705 5702 5700 5697 5695 5692 5690 5688 5687 5685 5684 5683 5683 5683
5703 5702 5703 5705 5707 5711 5714 5717 5720 5723 5726 5729 5732 5733 5734 5735 5735 5734 5732 5731 5729 5727 5725 5723 5721 5718 5716 5713 5710 5708 5705 5702 5700 5697 5695 5693 5691 5689 5688 5686 5685 5685 5684 5684
5699 5698 5698 5700 5702 5706 5709 5713 5716 5720 5723 5726 5729 5730 5732 5733 5733 5733 5732 5730 5728 5726 5725 5723 5721 5719 5716 5714 5711 5709 5706 5704 5701 5699 5697 5695 5693 5691 5690 5688 5687 5687 5686 5686
5694 5692 5692 5694 5696 5700 5704 5708 5712 5715 5719 5723 5725 5728 5730 5731 5732 5731 5731 5730 5728 5726 5725 5723 5721 5720 5717 5715 5713 5711 5709 5706 5704 5702 5700 5698 5696 5694 5693 5691 5690 5689 5688 5688
5688 5686 5686 5687 5689 5693 5697 5702 5706 5710 5715 5719 5722 5725 5727 5729 5730 5730 5730 5729 5728 5727 5725 5724 5722 5721 5719 5717 5715 5713 5711 5709 5707 5705 5704 5702 5700 5698 5697 5695 5694 5693 5692 5691
5682 5679 5678 5680 5682 5686 5691 5696 5700 5705 5710 5714 5718 5721 5724 5726 5727 5728 5728 5728 5727 5726 5725 5724 5723 5722 5720 5719 5717 5716 5714 5713 5711 5709 5708 5706 5704 5702 5701 5700 5699 5697 5696 5695
5675 5672 5671 5672 5675 5679 5684 5690 5695 5700 5705 5710 5714 5718 5721 5723 5725 5726 5727 5727 5726 5726 5725 5725 5724 5723 5722 5721 5720 5719 5717 5716 5715 5713 5712 5710 5709 5707 5706 5705 5703 5702 5701 5700
5669 5665 5664 5666 5669 5673 5678 5684 5689 5695 5700 5706 5710 5714 5717 5720 5722 5723 5725 5725 5725 5725 5725 5725 5725 5724 5723 5723 5722 5721 5720 5719 5718 5717 5716 5715 5713 5712 5710 5709 5708 5707 5706 5704
5663 5660 5659 5660 5663 5667 5672 5677 5683 5689 5695 5701 5705 5709 5713 5716 5719 5721 5722 5723 5724 5724 5724 5724 5724 5724 5724 5724 5724 5723 5723 5722 5722 5721 5720 5718 5717 5716 5715 5713 5712 5711 5710 5708
5657 5655 5654 5655 5658 5662 5666 5672 5678 5684 5690 5696 5701 5705 5709 5712 5715 5717 5719 5721 5722 5723 5723 5724 5724 5724 5725 5725 5725 5725 5725 5724 5724 5723 5723 5722 5721 5719 5718 5717 5716 5715 5713 5712
5652 5650 5649 5650 5652 5656 5661 5666 5672 5678 5684 5690 5695 5700 5704 5708 5711 5714 5716 5718 5720 5721 5722 5723 5723 5724 5725 5725 5726 5726 5726 5726 5726 5726 5725 5724 5723 5722 5721 5720 5719 5717 5716 5715